Location: Ca�n Batista
(41.4099°N, 1.7752°E)
Time: 14:55:06
(UTC+00:00)

Cosmos 1844 Rocket - Pass Details

Date: 03 March 2021
Orbit: 826 x 843 km, 71.0° (Epoch: 21 April)

Event Time Altitude Azimuth Distance (km) Brightness Sun altitude
Rises 18:23:28 0° 344° (NNW) 3,372 6.0 -7.8°
Reaches altitude 10° 18:26:11 10° 354° (N) 2,435 5.2 -8.3°
Maximum altitude 18:31:07 32° 57° (ENE) 1,400 3.4 -9.2°
Drops below altitude 10° 18:36:02 10° 119° (ESE) 2,425 4.6 -10.2°
Enters shadow 18:36:28 - 121° (ESE) 2,569 4.7 -10.3°
